Jamestown, ND

4:20 AM CDT on September 21, 2017 (GMT -0500)
Jamestown Municipal

Weather History for KJMS - March, 2013

Change the Weather History Date:

Saturday, March 9, 2013

  Actual Average Record
Temperature  
Mean Temperature 22 °F 24 °F  
Max Temperature 29 °F 33 °F 57 °F (2015)
Min Temperature 15 °F 15 °F -21 °F (1951)
Degree Days  
Heating Degree Days 43 41  
Month to date heating degree days 426 384  
Since 1 July heating degree days 7173 7143  
Cooling Degree Days 0 0  
Month to date cooling degree days 0 0  
Year to date cooling degree days 0 0  
Moisture  
Dew Point 21 °F    
Average Humidity 86    
Maximum Humidity 96    
Minimum Humidity 75    
Precipitation  
Precipitation T in 0.03 in 0.62 in (2010)
Month to date precipitation 0.12 0.21  
Year to date precipitation 0.61 1.06  
Sea Level Pressure  
Sea Level Pressure 29.93 in    
Wind  
Wind Speed 16 mph (North)    
Max Wind Speed 29 mph    
Max Gust Speed 33 mph    
Visibility 6 miles    
Events Snow    
T = Trace of Precipitation, MM = Missing Value Source: NWS Daily Summary

Daily Weather History Graph

Daily Weather History Graph

Search for Another Location

Airport or City:

Trip Planner

Search our weather history database for the weather conditions in past years. The results will help you decide how hot, cold, wet, or windy it might be!

Date:

Astronomy

Mar. 09, 2013 Rise Set
Actual Time 6:58 AM CST 6:32 PM CST
Civil Twilight 6:28 AM CST 7:02 PM CST
Nautical Twilight 5:53 AM CST 7:37 PM CST
Astronomical Twilight 5:17 AM CST 8:13 PM CST
Moon 5:30 AM CST (3/9) 4:31 PM CST (3/9)
Length of Visible Light 12h 34m
Length of Day
11h 33m
Waning Crescent, 5% of the Moon is Illuminated
Mar 9
Waning Crescent
Mar 11
New
Mar 19
First Quarter
Mar 27
Full
Apr 2
Last Quarter

Hourly Weather History & Observations

Time (CST) Temp. Windchill Dew Point Humidity Pressure Visibility Wind Dir Wind Speed Gust Speed Precip Events Conditions
12:35 AM 24.8 °F 16.9 °F 21.2 °F 86% 29.96 in 4.0 mi ENE 6.9 mph - N/A   Overcast
12:44 AM 24.8 °F 17.9 °F 21.2 °F 86% 29.95 in 4.0 mi ENE 5.8 mph - N/A   Overcast
12:56 AM 25.0 °F 18.1 °F 21.9 °F 88% 30.01 in 4.0 mi NE 5.8 mph - N/A   Overcast
1:51 AM 24.8 °F 16.1 °F 21.2 °F 86% 29.94 in 4.0 mi NNE 8.1 mph - N/A   Overcast
1:56 AM 24.1 °F 14.4 °F 21.0 °F 88% 30.00 in 4.0 mi NNE 9.2 mph - N/A   Overcast
2:47 AM 24.8 °F 15.3 °F 21.2 °F 86% 29.91 in 5.0 mi NE 9.2 mph - N/A   Overcast
2:56 AM 24.1 °F 14.4 °F 21.0 °F 88% 29.98 in 5.0 mi NNE 9.2 mph - N/A   Overcast
3:39 AM 23.0 °F 13.9 °F 21.2 °F 93% 29.89 in 4.0 mi NE 8.1 mph - N/A   Overcast
3:56 AM 23.0 °F 12.4 °F 21.0 °F 92% 29.94 in 5.0 mi NE 10.4 mph - N/A   Overcast
4:35 AM 23.0 °F 12.4 °F 19.4 °F 86% 29.87 in 5.0 mi NE 10.4 mph - N/A   Overcast
4:56 AM 23.0 °F 13.1 °F 19.9 °F 88% 29.93 in 5.0 mi NE 9.2 mph - N/A   Overcast
5:32 AM 24.8 °F 16.1 °F 21.2 °F 86% 29.87 in 6.0 mi NE 8.1 mph - N/A   Overcast
6:56 AM 24.1 °F 15.2 °F 21.0 °F 88% 29.93 in 6.0 mi North 8.1 mph - N/A   Overcast
7:56 AM 23.0 °F 11.7 °F 19.9 °F 88% 29.93 in 5.0 mi North 11.5 mph - N/A   Overcast
8:56 AM 23.0 °F 11.7 °F 19.0 °F 85% 29.93 in 6.0 mi North 11.5 mph - N/A   Overcast
9:56 AM 23.0 °F 9.6 °F 19.0 °F 85% 29.91 in 6.0 mi North 16.1 mph - N/A   Overcast
10:05 AM 24.8 °F 12.4 °F 19.4 °F 80% 29.84 in 6.0 mi North 15.0 mph - N/A   Haze
10:56 AM 26.1 °F 14.5 °F 21.0 °F 81% 29.91 in 6.0 mi North 13.8 mph - N/A   Haze
11:56 AM 26.1 °F 13.6 °F 21.0 °F 81% 29.90 in 6.0 mi NNW 16.1 mph - N/A   Haze
12:37 PM 28.4 °F 16.2 °F 21.2 °F 74% 29.84 in 7.0 mi NNW 17.3 mph - N/A   Mostly Cloudy
12:56 PM 28.0 °F 15.7 °F 23.0 °F 81% 29.91 in 7.0 mi NNW 17.3 mph - N/A   Overcast
1:12 PM 28.4 °F 17.0 °F 24.8 °F 86% 29.84 in 7.0 mi NNW 15.0 mph - N/A   Overcast
1:25 PM 28.4 °F 16.6 °F 23.0 °F 80% 29.84 in 6.0 mi NNW 16.1 mph - N/A   Haze
1:47 PM 28.4 °F 15.4 °F 23.0 °F 80% 29.84 in 8.0 mi NNW 19.6 mph - N/A   Overcast
1:56 PM 28.0 °F 14.9 °F 23.0 °F 81% 29.90 in 7.0 mi NNW 19.6 mph - N/A   Overcast
2:56 PM 28.0 °F 16.1 °F 21.0 °F 75% 29.90 in 9.0 mi NW 16.1 mph - N/A   Overcast
3:56 PM 28.9 °F 17.7 °F 23.0 °F 78% 29.91 in 10.0 mi NNW 15.0 mph - N/A   Overcast
4:13 PM 28.4 °F 17.5 °F 23.0 °F 80% 29.85 in 10.0 mi NNW 13.8 mph - N/A   Overcast
4:31 PM 28.4 °F 18.5 °F 24.8 °F 86% 29.85 in 4.0 mi NNW 11.5 mph - 0.00 in Snow Light Snow
4:56 PM 28.0 °F 15.3 °F 24.1 °F 85% 29.92 in 4.0 mi NNW 18.4 mph - 0.00 in Snow Light Snow
5:30 PM 28.4 °F 15.4 °F 24.8 °F 86% 29.87 in 2.5 mi NW 19.6 mph - 0.00 in Snow Light Snow
5:37 PM 28.4 °F 13.8 °F 24.8 °F 86% 29.88 in 2.0 mi NW 25.3 mph 29.9 mph 0.00 in Snow Light Snow
5:56 PM 28.0 °F 14.6 °F 24.1 °F 85% 29.95 in 4.0 mi NW 20.7 mph - 0.00 in Snow Light Snow
6:46 PM 28.4 °F 14.4 °F 24.8 °F 86% 29.91 in 5.0 mi NNW 23.0 mph - 0.00 in   Overcast
6:56 PM 27.0 °F 12.5 °F 24.1 °F 89% 29.98 in 6.0 mi NNW 23.0 mph - 0.00 in Snow Light Snow
7:56 PM 25.0 °F 9.2 °F 19.9 °F 81% 30.03 in 8.0 mi NNW 25.3 mph 33.4 mph 0.00 in   Overcast
8:14 PM 24.8 °F 9.6 °F 19.4 °F 80% 29.96 in 10.0 mi NNW 23.0 mph - N/A   Overcast
8:45 PM 23.0 °F 6.9 °F 17.6 °F 80% 29.98 in 8.0 mi NNW 24.2 mph - N/A   Overcast
8:56 PM 21.9 °F 5.5 °F 18.0 °F 85% 30.06 in 8.0 mi NNW 24.2 mph 31.1 mph N/A   Overcast
9:56 PM 19.0 °F 2.0 °F 14.0 °F 81% 30.09 in 8.0 mi NNW 23.0 mph 33.4 mph N/A   Overcast
10:56 PM 16.0 °F -2.8 °F 10.9 °F 81% 30.10 in 9.0 mi NNW 25.3 mph 32.2 mph N/A   Mostly Cloudy
11:56 PM 16.0 °F -1.3 °F 10.9 °F 81% 30.12 in 10.0 mi NNW 20.7 mph - N/A   Overcast